TimeEST,TemperatureF,Dew PointF,Humidity,Sea Level PressureIn,VisibilityMPH,Wind Direction,Wind SpeedMPH,Gust SpeedMPH,PrecipitationIn,Events,Conditions,WindDirDegrees,DateUTC
12:56 AM,21.9,5.0,48,29.96,10.0,NW,5.8,-,N/A,,Clear,310,2013-01-02 05:56:00
1:56 AM,21.9,7.0,53,29.99,10.0,NW,6.9,-,N/A,,Clear,310,2013-01-02 06:56:00
2:56 AM,21.0,8.1,57,29.99,10.0,NW,9.2,-,N/A,,Clear,320,2013-01-02 07:56:00
3:56 AM,19.9,7.0,57,29.97,10.0,NNW,11.5,-,N/A,,Clear,330,2013-01-02 08:56:00
4:56 AM,19.9,7.0,57,29.97,10.0,NNW,9.2,18.4,N/A,,Clear,340,2013-01-02 09:56:00
5:56 AM,19.9,6.1,55,29.99,10.0,NW,10.4,-,N/A,,Clear,310,2013-01-02 10:56:00
6:56 AM,19.0,6.1,57,29.99,10.0,NW,10.4,-,N/A,,Clear,310,2013-01-02 11:56:00
7:56 AM,19.0,6.1,57,29.99,10.0,NNW,4.6,-,N/A,,Clear,340,2013-01-02 12:56:00
8:56 AM,19.9,6.1,55,30.01,10.0,WNW,10.4,-,N/A,,Clear,300,2013-01-02 13:56:00
9:56 AM,23.0,7.0,50,30.02,10.0,WNW,8.1,-,N/A,,Clear,290,2013-01-02 14:56:00
10:56 AM,24.1,7.0,48,30.01,10.0,West,9.2,-,N/A,,Clear,270,2013-01-02 15:56:00
11:56 AM,25.0,8.1,49,29.99,10.0,West,10.4,17.3,N/A,,Clear,270,2013-01-02 16:56:00
12:56 PM,26.1,9.0,49,29.97,10.0,West,8.1,-,N/A,,Clear,260,2013-01-02 17:56:00
1:56 PM,27.0,10.9,51,29.96,10.0,West,9.2,-,N/A,,Clear,260,2013-01-02 18:56:00
2:56 PM,28.0,10.9,49,29.99,10.0,West,10.4,-,N/A,,Scattered Clouds,270,2013-01-02 19:56:00
3:56 PM,28.0,10.9,49,30.01,10.0,West,8.1,-,N/A,,Partly Cloudy,280,2013-01-02 20:56:00
4:56 PM,28.0,10.9,49,30.03,10.0,West,9.2,-,N/A,,Scattered Clouds,280,2013-01-02 21:56:00
5:56 PM,28.9,10.9,47,30.04,10.0,NW,9.2,-,N/A,,Clear,320,2013-01-02 22:56:00
6:56 PM,28.9,10.9,47,30.07,10.0,WNW,12.7,-,N/A,,Clear,300,2013-01-02 23:56:00
7:56 PM,28.0,12.0,51,30.08,10.0,WNW,11.5,-,N/A,,Clear,300,2013-01-03 00:56:00
8:56 PM,28.0,10.0,47,30.09,10.0,NW,13.8,19.6,N/A,,Clear,310,2013-01-03 01:56:00
9:56 PM,26.1,9.0,49,30.10,10.0,WNW,6.9,-,N/A,,Clear,300,2013-01-03 02:56:00
10:56 PM,26.1,9.0,49,30.12,10.0,WNW,10.4,-,N/A,,Clear,300,2013-01-03 03:56:00
11:56 PM,25.0,5.0,43,30.12,10.0,WNW,10.4,18.4,N/A,,Clear,290,2013-01-03 04:56:00